CAPE
2874 2759 2652 2357 2111 1811 1555 1566 1671 1769 1498 1484 1615 1648 1621 1698 1727 1809 1792 1925 1892 1927 2184 2199 2216 2221 2301 2378 2380 2241 1990 1874 2042 1795 1667 1467 1284 1756 1730 1801 1811 1597 1256 1438 1921 2166 2092 1895 1799 1800 1893 2233 2236 2051 2035 2232 2673 2543 2643 2164 1460 1377 1408 1027 732 771 0 0 2 76 273 312 346 412
2757 2951 2603 2538 2326 1943 1853 1754 1708 1689 1724 1671 1557 1729 2013 1989 1926 1841 1838 1990 1967 2083 2230 2251 2238 2279 2364 2365 2331 2107 1874 1758 1810 1712 1491 1773 1838 1739 1689 1790 1808 1937 2144 2191 2228 2294 2182 2102 2012 1801 1754 2398 2546 2452 2209 2189 2334 2684 2495 2410 1373 1194 1287 1094 704 698 468 0 0 10 180 272 280 410
2674 2658 2684 2526 2283 2420 2230 1725 1861 1918 1968 2006 1973 1755 2329 2402 2247 2136 2095 1979 2026 2062 2320 2270 2310 2393 2392 2294 2162 1894 1697 1644 1768 1662 1764 1763 1720 1613 1538 1640 1693 1734 1834 2203 2311 2363 2317 2212 1812 1700 1928 2422 2564 2626 2506 2292 2122 2497 2423 2398 1622 1051 1114 1128 770 654 653 0 0 0 42 215 323 337
2892 2729 2503 2452 2368 2455 2335 2177 2180 2102 2011 1956 2114 2617 2791 2694 2621 2570 2376 2124 2107 2166 2253 2393 2378 2298 2227 2126 1943 1743 1612 1535 1729 1742 1705 1618 1625 1608 1532 1542 1579 1621 1679 2095 2307 2327 2284 2066 1830 1764 2052 2299 2363 2378 2465 2306 2092 2091 2426 2290 1815 1245 910 1035 827 426 639 0 0 0 8 153 341 369
2680 2743 2700 2714 2764 2588 2496 2497 2457 2333 2166 2105 2553 2684 2640 2442 2719 2888 2470 2218 2096 2179 2319 2251 2234 2199 2093 1916 1786 1658 1529 1572 1888 1834 1635 1550 1588 1673 1648 1606 1566 1574 1618 1884 2086 2138 2108 1940 1741 1840 2062 2145 2155 2142 2208 2241 2118 1925 2066 2172 1915 1330 942 815 807 267 0 0 0 0 0 121 122 325
2325 2658 2752 2788 2902 2814 2636 2594 2498 2359 2186 2060 1997 1804 1602 1526 1514 2569 2495 2292 2369 2420 2360 2255 2226 2189 2039 1833 1634 1622 1609 1760 2011 1924 1749 1634 1656 1761 1736 1627 1536 1509 1554 1758 1918 1970 1938 1802 1846 2026 2037 2004 1862 1750 1836 2088 2115 1912 1651 1770 1752 1312 1274 714 682 610 0 0 0 0 0 0 21 64
2359 2452 2541 2531 2412 2250 2080 2101 2118 2118 2153 2091 1988 1960 1895 1602 1791 2219 2493 2465 2470 2288 2211 2228 2241 2148 2035 1777 1665 1691 1748 1940 2078 2004 1903 1788 1800 1816 1724 1548 1440 1553 1874 1925 1900 1864 1798 1908 2008 2019 2070 2078 2009 1903 1779 1497 1664 1720 1532 1063 1302 1389 1456 1270 330 281 0 0 0 0 0 0 0 0
2516 2483 2331 2260 2172 2112 2005 1895 1906 1965 2031 1887 1721 1705 1573 1497 1516 1703 2390 2678 2354 2447 2321 2280 2181 2135 1837 1596 1734 1528 1596 1870 2079 2082 2052 1943 1882 1802 1600 1402 1429 1876 1920 1885 1816 1776 1933 2026 1995 1942 1934 1931 1864 1799 1861 1874 1523 1313 1339 1218 1345 1402 1500 1633 1423 588 0 0 0 0 0 0 0 0
2601 2423 2286 2244 2264 2257 2229 2148 1964 1890 1920 1859 1705 1687 1620 1607 1564 1724 2220 2311 2472 2448 2214 1996 2132 1913 1521 1671 1606 1329 1345 1709 2009 2136 2164 2004 1867 1659 1350 1261 1748 1907 1917 1889 1810 1924 1976 2016 1990 1856 1701 1639 1667 1841 1956 1894 1813 1575 1174 1310 1357 1420 1426 1631 1614 1404 719 0 0 0 0 0 0 0
2544 2449 2196 1978 1866 1817 1836 1982 1964 1767 1502 1310 1461 1547 1528 1297 1296 1303 1452 1641 2001 2082 2074 2158 1926 1357 1600 1630 1358 1121 1079 1660 1938 2135 2189 1994 1766 1400 1102 1515 1766 1823 1903 1907 1928 1939 1774 1803 1905 1841 1663 1470 1721 1993 2051 1849 1776 1776 1579 1240 1361 1392 1395 1531 1660 1633 1557 1012 0 0 0 0 0 0
2053 1851 1826 1702 1574 1544 1487 1536 1591 1519 1264 1268 1294 1390 1399 1224 1272 1319 1447 1738 1848 2077 1953 1536 1304 1337 1539 1295 1010 895 1073 1534 1792 2157 2156 1893 1445 1055 1032 1485 1728 1775 1894 1834 1834 1730 1651 1559 1584 1625 1493 1391 1843 2129 2062 1831 1735 1739 1716 1466 1423 1368 1347 1482 1661 1669 1654 1644 1307 462 0 0 0 0
1746 1631 1515 1414 1390 1364 1336 1243 1104 1005 841 778 990 1202 1338 1191 1238 1361 1574 1806 1873 1743 1348 1152 1239 1465 1250 950 1231 1291 1432 1581 1697 2050 2106 1598 989 807 1038 1383 1606 1640 1824 1852 1860 1665 1463 1326 1186 1263 1291 1636 1933 2100 2069 1940 1855 1730 1632 1638 1582 1444 1347 1421 1608 1671 1691 1669 1672 1524 957 0 0 0
1697 1600 1520 1334 1129 1077 2151 2355 2188 1299 1803 1880 1376 1260 1195 1275 1827 1914 1872 1678 1508 1406 1371 931 824 905 1246 1508 1426 1393 1475 1533 1688 1992 2022 1073 591 663 1087 1241 1401 1416 1705 1856 1878 1693 1532 1247 797 951 1464 1742 1798 1910 1937 1908 1910 1953 1945 1716 1487 1419 1303 1466 1566 1624 1650 1606 1650 1684 1644 1398 749 0
1832 1612 1304 1206 1931 2306 2489 2953 3481 4049 4135 3632 3361 3099 2753 2059 1722 1571 1638 1595 1483 1431 1066 769 1363 1654 1754 1674 1466 1340 1379 1368 1674 1915 1599 621 353 862 951 1104 1164 1283 1592 1860 1787 1572 1436 1194 747 1302 1445 1500 1518 1689 1789 1798 1799 1814 1826 1928 1956 1805 1496 1515 1615 1654 1652 1590 1616 1634 1669 1640 1611 1429
2004 1755 1373 1292 1475 2674 4433 3693 3382 3062 2959 3222 3515 3857 3913 2891 1642 1334 1353 1359 1356 1150 1450 1886 1890 1972 1841 1657 1379 1269 1198 1370 1651 1633 1099 360 221 754 637 1042 782 1138 1474 1820 1636 1320 1163 1049 708 1461 1287 1282 1119 1462 1618 1742 1791 1707 1620 1694 1856 1936 2003 1948 1619 1675 1684 1710 1728 1720 1679 1668 1678 1691
2165 1899 1414 1162 1179 1210 1208 1285 910 1499 2435 3047 3684 4107 4001 3498 3464 1889 1364 1417 1769 2167 2143 2205 2293 2029 1785 1502 1277 1146 1200 1379 1068 623 150 18 70 190 168 1125 921 892 1392 1694 1602 1181 762 853 588 1349 1230 1321 1096 1198 1636 1389 1430 1461 1405 1614 1715 1774 1906 1964 1957 1871 1780 1794 1846 1857 1837 1806 1772 1750
2111 1888 1439 1130 882 853 3307 3133 2282 1822 1271 1900 2725 3450 3597 3728 3394 2264 1475 1491 2074 2312 2316 2399 2339 2076 1703 1299 1157 1184 1375 1069 323 25 0 0 0 53 237 1135 822 1020 1194 1256 1366 948 302 672 462 1000 1286 1362 1142 969 1008 1442 1491 1246 1109 1289 1544 1678 1752 1818 1879 1890 1926 1917 1873 1878 1862 1823 1815 1818
1924 1933 1574 1175 968 696 871 1516 1528 1092 803 1560 2228 2189 2161 2166 2509 2435 2450 3034 2958 2657 2707 2801 2400 1976 1383 1226 1037 1052 730 247 5 0 0 0 0 0 723 786 945 1065 976 807 854 98 5 252 237 140 1050 1152 1212 929 766 868 1028 1130 974 1013 1156 1448 1598 1654 1629 1556 1573 1612 1654 1718 1749 1900 1944 1908
1950 1990 1614 1295 1074 808 676 619 580 683 883 1253 1904 2308 2335 2142 1998 1974 1942 2139 2447 2618 2529 2085 1811 1566 1415 1170 939 807 605 54 268 373 305 0 0 646 778 815 938 766 611 486 206 0 0 32 50 32 281 1008 1148 890 718 848 419 203 164 134 70 0 0 0 0 614 822 840 1146 1425 1580 1768 1927 1902
2058 1882 1531 1410 1221 917 812 721 719 749 1039 1394 1757 2014 2099 2054 1945 1897 1830 1800 1776 1904 1810 1619 1505 1376 1183 870 704 666 516 718 736 512 358 452 746 752 553 362 340 574 439 220 0 0 0 6 53 29 299 986 900 550 366 702 422 56 0 0 0 0 0 0 0 0 94 469 884 1172 1408 1564 1759 1827
1786 1628 1464 1419 1315 1083 835 812 814 822 1032 1305 1534 1813 2056 2157 2181 2206 2047 1887 1762 1584 1402 1072 993 932 796 695 675 444 237 328 372 424 533 880 774 278 244 143 104 311 360 0 0 0 0 0 39 18 13 639 503 142 74 240 231 0 0 0 0 0 0 0 0 0 0 346 736 1122 1349 1456 1544 1603
1481 1482 1910 1428 1300 1036 1012 1012 986 1006 1090 1212 1357 1481 1600 1733 1793 1805 1667 1577 1368 1084 900 785 733 712 717 725 455 310 408 369 442 459 400 517 213 182 93 10 12 28 8 10 0 0 0 0 0 26 38 59 359 36 22 31 26 0 0 0 0 0 0 0 0 0 0 180 584 919 1118 1238 1270 1264
1386 1253 1890 1494 1254 1276 1354 1348 1364 1418 1404 1415 1416 1408 1397 1382 1329 1213 1047 905 796 686 615 572 514 468 448 324 185 142 226 654 588 328 481 185 1 1 0 0 0 0 0 0 0 0 0 0 0 18 34 27 182 1 13 0 2 0 0 0 0 0 0 0 0 0 0 0 165 468 631 802 928 1027
1164 1190 1586 1498 1364 1342 1343 1330 1307 1158 1050 1097 1222 1290 1323 1315 1307 1029 850 635 486 478 399 331 285 271 193 132 131 103 142 280 230 201 75 11 0 0 0 0 0 0 0 0 0 0 0 0 0 0 0 51 8 0 0 0 0 0 0 0 0 0 0 0 0 0 0 0 0 0 104 498 566 718
1187 1140 1125 1158 1138 1140 1097 1095 996 769 618 696 725 714 682 636 626 530 499 442 366 307 258 215 176 0 0 152 133 170 112 86 167 155 73 13 0 0 0 0 0 0 0 0 0 0 0 0 0 0 0 0 0 0 0 0 0 0 0 0 0 0 0 0 0 0 0 0 0 0 44 20 57 16
1084 1004 991 941 893 862 810 732 548 452 451 465 501 517 492 514 521 501 455 393 334 256 198 172 105 201 207 220 181 64 9 30 137 61 77 67 8 0 0 0 0 0 0 0 0 0 0 0 0 0 0 0 0 0 0 0 0 0 0 0 0 0 0 0 0 0 0 0 0 0 0 0 0 0
960 963 960 908 783 705 639 600 541 538 542 539 504 483 454 414 400 408 417 373 317 258 212 184 60 136 142 154 46 114 11 0 25 40 27 10 16 25 14 0 0 0 0 0 0 0 0 0 0 0 0 0 0 0 0 0 0 0 0 0 0 0 0 0 0 0 0 0 0 0 0 0 0 0
646 754 884 806 606 428 413 402 400 369 402 342 306 285 316 354 362 351 406 386 349 314 251 195 153 142 93 3 2 0 0 0 0 9 0 0 0 0 0 0 0 0 0 0 0 0 0 0 0 0 0 0 0 0 0 0 0 0 0 0 0 0 0 0 0 0 0 0 0 0 0 0 0 0
67 219 346 326 202 301 310 351 273 202 198 229 257 254 257 243 235 272 311 322 329 264 228 200 178 156 144 141 132 86 0 0 1 6 0 0 0 0 0 0 0 0 0 0 0 0 0 0 0 0 0 0 0 0 0 0 0 0 0 0 0 0 0 0 0 0 0 0 0 0 0 0 0 0
35 25 68 165 156 203 239 187 142 143 157 203 174 195 197 174 164 181 194 189 173 181 158 108 102 91 113 124 73 0 0 0 0 0 0 0 0 0 0 0 0 0 0 0 0 0 0 0 0 0 0 0 0 0 0 0 0 0 0 0 0 0 0 0 0 0 0 0 0 0 0 0 0 0
43 0 0 0 28 114 122 134 131 131 124 132 162 163 124 124 103 97 45 31 9 81 25 9 16 0 44 57 0 0 0 0 0 0 0 0 0 0 0 0 0 0 0 0 0 0 0 0 0 0 0 0 0 0 0 0 0 0 0 0 0 0 0 0 0 0 0 0 0 0 0 0 0 0
0 0 0 0 0 45 40 44 53 75 98 124 100 54 62 50 62 6 1 6 58 82 92 104 87 90 65 0 0 0 0 0 0 0 0 0 0 0 0 0 0 0 0 0 0 0 0 0 0 0 0 0 0 0 0 0 0 0 0 0 0 0 0 0 0 0 0 0 0 0 0 0 0 0
14 38 34 0 0 0 43 19 34 53 65 52 0 0 0 0 0 0 0 0 0 2 50 63 68 56 0 0 0 0 0 0 0 0 0 0 0 0 0 0 0 0 0 0 0 0 0 0 0 0 0 0 0 0 0 0 0 0 0 0 0 0 0 0 0 0 0 0 0 0 0 0 0 0
11 26 38 11 11 37 61 75 42 40 38 0 0 0 0 0 4 24 0 0 0 17 18 10 0 0 0 0 11 39 32 0 0 0 0 0 0 0 0 0 0 0 0 0 0 0 0 0 0 0 0 0 0 0 0 0 0 0 0 0 0 0 0 0 0 0 0 0 0 0 0 0 0 0
0 0 29 3 0 3 42 46 35 25 22 10 0 0 2 0 0 0 0 0 0 0 0 0 0 0 0 0 0 0 0 0 0 0 0 0 0 0 0 0 0 0 0 0 0 0 0 0 0 0 0 0 0 0 0 0 0 0 0 0 0 0 0 0 0 0 0 0 0 0 0 0 0 0
0 0 0 0 0 0 15 26 20 14 1 0 0 0 0 0 0 0 0 0 0 0 0 0 0 0 0 0 0 0 0 0 0 0 0 0 0 0 0 0 0 0 0 0 0 0 0 0 0 0 0 0 0 0 0 0 0 0 0 0 0 0 0 0 0 0 0 0 0 0 0 0 0 0
4 8 0 0 0 0 0 3 0 0 0 0 0 0 0 0 0 0 0 0 0 0 0 0 0 0 0 0 0 0 0 0 0 0 0 0 0 0 0 0 0 0 0 0 0 0 0 0 0 0 0 0 0 0 0 0 0 0 0 0 0 0 0 0 0 0 0 0 0 0 0 0 0 0
45 50 43 11 0 0 0 0 0 0 0 0 0 0 0 0 0 0 0 0 0 0 0 0 0 0 0 0 0 0 0 0 0 0 0 0 0 0 0 0 0 0 0 0 0 0 0 0 0 0 0 0 0 0 0 0 0 0 0 0 0 0 0 0 0 0 0 0 0 0 0 0 0 0
0 2 27 34 0 0 0 0 0 0 0 0 0 0 0 0 0 0 0 0 0 0 0 0 0 0 0 0 0 0 0 0 0 0 0 0 0 0 0 0 0 0 0 0 0 0 0 0 0 0 0 0 0 0 0 0 0 0 0 0 0 0 0 0 0 0 0 0 0 0 0 0 0 0
0 0 0 0 0 0 0 0 0 0 0 0 0 0 0 0 0 0 0 0 0 0 0 0 0 0 0 0 0 0 0 0 0 0 0 0 0 0 0 0 0 0 0 0 0 0 0 0 0 0 0 0 0 0 0 0 0 0 0 0 0 0 0 0 0 0 0 0 0 0 0 0 0 0
0 0 0 0 0 0 0 0 0 0 0 0 0 0 0 0 0 0 0 0 0 0 0 0 0 0 0 0 0 0 0 0 0 0 0 0 0 0 0 0 0 0 0 0 0 0 0 0 0 0 0 0 0 0 0 0 0 0 0 0 0 0 0 0 0 0 0 0 0 0 0 0 0 0
0 0 0 0 0 0 0 0 0 0 0 0 0 0 0 0 0 0 0 0 0 0 0 0 0 0 0 0 0 0 0 0 0 0 0 0 0 0 0 0 0 0 0 0 0 0 0 0 0 0 0 0 0 0 0 0 0 0 0 0 0 0 0 0 0 0 0 0 0 0 0 0 0 0
0 0 0 0 0 0 0 0 0 0 0 0 0 0 0 0 0 0 0 0 0 0 0 0 0 0 0 0 0 0 0 0 0 0 0 0 0 0 0 0 0 0 0 0 0 0 0 0 0 0 0 0 0 0 0 0 0 0 0 0 0 0 0 0 0 0 0 0 0 0 0 0 0 0
0 0 0 0 0 0 0 0 0 0 0 0 0 0 0 0 0 0 0 0 0 0 0 0 0 0 0 0 0 0 0 0 0 0 0 0 0 0 0 0 0 0 0 0 0 0 0 0 0 0 0 0 0 0 0 0 0 0 0 0 0 0 0 0 0 0 0 0 0 0 0 0 0 3
0 0 0 0 0 0 0 0 0 0 0 0 0 0 0 0 0 0 0 0 0 0 0 0 0 0 0 0 0 0 0 0 0 0 0 0 0 0 0 0 0 0 0 0 0 0 0 0 0 0 0 0 0 0 0 0 0 0 0 0 0 0 0 2 0 0 0 0 0 0 0 0 0 0
Wind_Speed
6 6 6 5 3 4 7 7 8 8 9 9 10 11 11 12 10 8 7 6 8 7 9 7 7 6 4 4 4 4 5 4 3 2 2 3 4 1 2 1 1 2 2 1 2 4 2 3 2 3 4 2 8 13 18 20 22 23 23 26 27 26 25 25 24 23 nan nan nan nan 19 22 22 24
5 6 7 6 4 5 7 6 8 8 9 10 9 9 10 12 12 11 8 5 8 7 6 9 6 3 2 3 3 5 4 4 2 2 3 3 4 2 0 1 1 2 2 2 2 3 1 2 2 3 4 4 4 9 16 19 20 22 23 25 27 26 25 24 24 24 22 nan nan nan 18 21 22 21
5 7 7 6 5 6 6 7 7 7 8 8 9 9 10 10 11 12 10 7 4 9 7 6 8 7 5 4 5 5 4 2 1 3 4 5 3 3 3 1 1 1 2 2 2 1 1 1 3 4 4 4 2 5 11 18 20 22 23 25 26 25 24 25 24 24 23 nan nan nan nan 21 22 21
6 7 7 7 7 7 7 6 6 6 6 8 8 9 9 9 9 11 11 9 4 8 9 8 6 7 7 6 6 4 4 4 3 5 5 5 4 5 6 3 2 1 2 2 1 1 1 2 4 6 5 3 2 3 8 14 18 22 23 24 24 25 25 25 25 24 23 nan nan nan nan 20 21 20
5 5 6 6 6 7 7 6 6 5 6 8 9 10 12 11 11 12 12 10 6 6 9 10 9 7 7 7 9 6 5 4 4 4 6 6 6 6 6 6 3 1 1 1 2 2 2 4 4 5 5 3 2 2 5 10 16 21 23 23 23 25 25 25 25 24 nan nan nan nan nan 19 17 18
4 5 5 4 4 7 7 7 6 6 7 8 8 9 9 9 11 12 13 12 11 8 8 7 8 8 9 6 8 8 4 4 5 4 4 6 7 7 7 6 5 1 1 1 2 2 3 3 3 3 4 2 2 3 5 8 12 18 23 24 24 24 25 26 25 25 nan nan nan nan nan nan nan nan
4 5 5 5 7 8 9 8 8 9 9 9 8 6 6 7 8 11 12 13 10 8 7 10 8 8 7 8 6 5 6 7 8 6 5 6 7 8 8 7 7 3 0 1 1 2 3 3 2 2 1 1 2 3 3 5 9 15 21 24 24 24 24 26 26 25 nan nan nan nan nan nan nan nan
8 8 8 7 7 8 9 8 8 8 8 8 8 6 6 6 6 10 11 10 10 9 7 6 8 7 6 6 8 8 7 7 7 8 8 9 8 6 7 8 8 5 1 2 2 1 1 1 1 2 3 5 7 7 8 6 6 13 18 22 23 23 24 25 26 26 nan nan nan nan nan nan nan nan
10 10 9 8 8 9 8 8 8 8 8 8 8 7 7 8 8 10 11 10 10 10 6 4 6 8 7 8 7 11 9 6 8 9 9 9 9 8 8 9 8 6 3 3 3 2 3 4 5 6 7 9 10 10 9 10 11 12 17 20 20 21 23 24 25 26 26 nan nan nan nan nan nan nan
12 12 11 11 11 10 9 8 9 10 9 10 10 9 10 10 11 10 10 11 11 11 8 9 5 8 8 8 8 9 11 9 8 8 9 10 10 8 7 9 8 7 8 8 6 5 5 6 7 10 10 11 12 12 12 13 13 11 13 18 19 17 20 23 24 25 26 25 nan nan nan nan nan nan
13 13 13 13 13 11 10 10 10 10 10 10 10 10 10 11 11 10 10 12 14 14 11 9 9 7 8 11 8 8 9 11 13 12 9 10 11 7 9 10 9 8 6 7 7 7 7 8 11 10 11 12 13 14 13 14 13 12 9 15 17 17 17 19 22 23 25 25 25 23 nan nan nan nan
14 15 15 15 14 13 12 12 11 13 11 13 11 10 12 12 12 11 12 14 15 15 13 12 11 10 10 10 10 10 11 12 12 15 15 11 11 7 7 12 12 9 9 8 8 9 9 10 11 12 11 12 13 15 14 15 14 15 11 11 15 16 16 17 18 19 21 23 24 23 22 nan nan nan
15 16 17 17 16 16 13 12 13 15 16 17 14 13 14 13 14 15 16 15 15 15 15 12 13 12 11 10 11 10 12 12 9 10 13 12 12 11 8 8 14 14 10 9 11 11 11 10 11 10 11 11 12 14 15 14 15 14 13 13 12 14 15 15 15 16 17 19 21 21 21 21 20 nan
16 17 18 18 14 13 12 11 11 17 18 17 17 16 17 16 18 19 17 16 15 16 15 12 13 13 10 10 10 11 11 10 10 10 12 11 10 12 9 8 12 13 12 10 11 11 12 12 11 11 12 11 13 14 14 12 13 15 18 18 16 14 14 15 14 15 15 16 16 17 18 19 19 19
16 17 17 18 17 17 18 21 22 22 21 20 18 17 17 18 20 21 20 17 19 18 17 16 16 14 12 9 11 11 9 11 11 11 12 12 13 15 14 11 7 15 14 11 12 11 12 14 13 12 13 12 13 15 14 13 17 18 19 20 20 19 15 14 15 15 13 12 13 14 15 16 17 18
19 19 20 19 20 22 22 24 25 25 24 23 22 20 19 19 19 22 23 21 21 21 19 16 14 16 14 13 11 11 13 11 12 12 13 nan nan 14 15 15 14 12 15 13 13 12 12 14 14 14 14 13 13 16 16 16 18 18 18 19 19 20 19 18 16 15 15 14 13 13 13 13 14 15
21 23 24 22 23 23 23 28 27 27 27 25 25 27 25 23 22 22 21 21 23 24 22 19 16 17 16 16 14 15 14 15 14 nan nan nan nan nan 15 15 16 15 15 16 16 15 13 15 15 14 14 15 14 16 17 18 19 19 19 19 19 19 20 19 18 17 13 13 15 14 13 12 12 13
24 26 26 26 25 27 28 29 29 28 28 28 28 29 29 28 28 29 26 24 23 24 23 23 19 17 19 16 16 14 16 15 nan nan nan nan nan nan 16 15 16 17 19 19 18 nan nan 16 16 15 13 15 15 15 19 21 20 23 21 20 19 19 20 19 19 18 16 13 11 13 14 14 13 12
27 28 28 28 28 30 30 31 30 30 30 30 30 31 32 32 31 30 30 30 29 28 27 25 21 18 17 15 14 14 15 nan 15 18 17 nan nan 17 17 16 18 20 22 21 22 nan nan nan nan nan 14 14 15 15 16 21 21 23 21 20 nan nan nan nan nan 21 21 20 17 14 13 14 14 12
31 33 33 32 31 31 32 32 31 31 31 31 32 33 33 33 32 33 32 33 34 32 30 27 25 22 18 16 16 15 15 16 18 19 19 20 21 22 23 21 19 21 19 22 nan nan nan nan nan nan 16 18 18 16 16 19 21 nan nan nan nan nan nan nan nan nan nan 22 21 21 19 16 15 14
34 36 37 37 35 34 32 33 33 32 32 36 36 35 34 32 32 32 31 33 35 35 33 30 26 22 19 17 16 16 16 21 24 27 26 24 25 28 27 23 22 20 18 nan nan nan nan nan nan nan nan 19 20 20 nan 17 19 nan nan nan nan nan nan nan nan nan nan 22 21 23 23 21 20 20
35 37 39 40 39 37 36 36 36 35 35 38 38 38 36 35 33 32 32 32 33 34 32 32 27 24 23 22 22 22 25 27 27 28 28 25 29 30 nan nan nan nan nan nan nan nan nan nan nan nan nan nan 22 nan nan nan nan nan nan nan nan nan nan nan nan nan nan 22 22 22 23 23 21 21
37 37 38 45 43 41 40 41 40 38 37 39 40 40 39 37 33 32 32 32 33 33 33 32 31 28 26 26 25 24 23 26 27 27 27 29 nan nan nan nan nan nan nan nan nan nan nan nan nan nan nan nan 21 nan nan nan nan nan nan nan nan nan nan nan nan nan nan nan 23 23 23 24 22 22
38 40 45 48 48 46 43 43 42 40 37 39 40 40 41 39 34 33 33 32 33 33 32 29 29 26 25 25 26 26 27 28 29 29 nan nan nan nan nan nan nan nan nan nan nan nan nan nan nan nan nan nan nan nan nan nan nan nan nan nan nan nan nan nan nan nan nan nan nan nan 25 26 27 26
39 41 44 46 46 45 43 41 39 37 36 37 39 39 40 39 38 35 34 32 32 32 31 30 29 nan nan 28 28 28 29 nan 29 29 nan nan nan nan nan nan nan nan nan nan nan nan nan nan nan nan nan nan nan nan nan nan nan nan nan nan nan nan nan nan nan nan nan nan nan nan nan nan nan nan
36 37 40 44 46 45 43 40 38 36 35 35 37 36 35 38 38 35 33 32 31 31 32 31 31 30 30 31 30 nan nan nan 28 nan nan nan nan nan nan nan nan nan nan nan nan nan nan nan nan nan nan nan nan nan nan nan nan nan nan nan nan nan nan nan nan nan nan nan nan nan nan nan nan nan
31 29 30 34 38 36 35 34 33 34 33 34 36 35 35 35 36 34 34 32 32 33 33 34 nan 31 33 33 nan 30 nan nan nan nan nan nan nan nan nan nan nan nan nan nan nan nan nan nan nan nan nan nan nan nan nan nan nan nan nan nan nan nan nan nan nan nan nan nan nan nan nan nan nan nan
22 23 26 27 23 22 22 23 24 28 33 35 35 36 36 37 37 36 34 34 34 34 35 35 34 34 nan nan nan nan nan nan nan nan nan nan nan nan nan nan nan nan nan nan nan nan nan nan nan nan nan nan nan nan nan nan nan nan nan nan nan nan nan nan nan nan nan nan nan nan nan nan nan nan
nan 23 24 24 21 20 19 20 22 26 30 32 33 34 35 36 39 37 36 35 36 36 36 36 36 36 35 33 32 nan nan nan nan nan nan nan nan nan nan nan nan nan nan nan nan nan nan nan nan nan nan nan nan nan nan nan nan nan nan nan nan nan nan nan nan nan nan nan nan nan nan nan nan nan
nan nan nan 25 24 21 22 27 29 30 32 32 34 37 38 37 38 36 35 34 36 38 38 38 38 nan 36 36 nan nan nan nan nan nan nan nan nan nan nan nan nan nan nan nan nan nan nan nan nan nan nan nan nan nan nan nan nan nan nan nan nan nan nan nan nan nan nan nan nan nan nan nan nan nan
nan nan nan nan nan 22 21 24 28 28 30 34 38 39 39 36 33 nan nan nan nan nan nan nan nan nan nan nan nan nan nan nan nan nan nan nan nan nan nan nan nan nan nan nan nan nan nan nan nan nan nan nan nan nan nan nan nan nan nan nan nan nan nan nan nan nan nan nan nan nan nan nan nan nan
nan nan nan nan nan nan nan nan nan nan nan 36 39 nan nan nan nan nan nan nan nan nan nan 46 nan nan nan nan nan nan nan nan nan nan nan nan nan nan nan nan nan nan nan nan nan nan nan nan nan nan nan nan nan nan nan nan nan nan nan nan nan nan nan nan nan nan nan nan nan nan nan nan nan nan
nan nan nan nan nan nan nan nan nan nan nan nan nan nan nan nan nan nan nan nan nan nan nan nan nan nan nan nan nan nan nan nan nan nan nan nan nan nan nan nan nan nan nan nan nan nan nan nan nan nan nan nan nan nan nan nan nan nan nan nan nan nan nan nan nan nan nan nan nan nan nan nan nan nan
nan nan nan nan nan nan nan nan nan nan nan nan nan nan nan nan nan nan nan nan nan nan nan nan nan nan nan nan nan nan nan nan nan nan nan nan nan nan nan nan nan nan nan nan nan nan nan nan nan nan nan nan nan nan nan nan nan nan nan nan nan nan nan nan nan nan nan nan nan nan nan nan nan nan
nan nan nan nan nan nan nan nan nan nan nan nan nan nan nan nan nan nan nan nan nan nan nan nan nan nan nan nan nan nan nan nan nan nan nan nan nan nan nan nan nan nan nan nan nan nan nan nan nan nan nan nan nan nan nan nan nan nan nan nan nan nan nan nan nan nan nan nan nan nan nan nan nan nan
nan nan nan nan nan nan nan nan nan nan nan nan nan nan nan nan nan nan nan nan nan nan nan nan nan nan nan nan nan nan nan nan nan nan nan nan nan nan nan nan nan nan nan nan nan nan nan nan nan nan nan nan nan nan nan nan nan nan nan nan nan nan nan nan nan nan nan nan nan nan nan nan nan nan
nan nan nan nan nan nan nan nan nan nan nan nan nan nan nan nan nan nan nan nan nan nan nan nan nan nan nan nan nan nan nan nan nan nan nan nan nan nan nan nan nan nan nan nan nan nan nan nan nan nan nan nan nan nan nan nan nan nan nan nan nan nan nan nan nan nan nan nan nan nan nan nan nan nan
nan nan nan nan nan nan nan nan nan nan nan nan nan nan nan nan nan nan nan nan nan nan nan nan nan nan nan nan nan nan nan nan nan nan nan nan nan nan nan nan nan nan nan nan nan nan nan nan nan nan nan nan nan nan nan nan nan nan nan nan nan nan nan nan nan nan nan nan nan nan nan nan nan nan
nan nan nan nan nan nan nan nan nan nan nan nan nan nan nan nan nan nan nan nan nan nan nan nan nan nan nan nan nan nan nan nan nan nan nan nan nan nan nan nan nan nan nan nan nan nan nan nan nan nan nan nan nan nan nan nan nan nan nan nan nan nan nan nan nan nan nan nan nan nan nan nan nan nan
nan nan nan nan nan nan nan nan nan nan nan nan nan nan nan nan nan nan nan nan nan nan nan nan nan nan nan nan nan nan nan nan nan nan nan nan nan nan nan nan nan nan nan nan nan nan nan nan nan nan nan nan nan nan nan nan nan nan nan nan nan nan nan nan nan nan nan nan nan nan nan nan nan nan
nan nan nan nan nan nan nan nan nan nan nan nan nan nan nan nan nan nan nan nan nan nan nan nan nan nan nan nan nan nan nan nan nan nan nan nan nan nan nan nan nan nan nan nan nan nan nan nan nan nan nan nan nan nan nan nan nan nan nan nan nan nan nan nan nan nan nan nan nan nan nan nan nan nan
nan nan nan nan nan nan nan nan nan nan nan nan nan nan nan nan nan nan nan nan nan nan nan nan nan nan nan nan nan nan nan nan nan nan nan nan nan nan nan nan nan nan nan nan nan nan nan nan nan nan nan nan nan nan nan nan nan nan nan nan nan nan nan nan nan nan nan nan nan nan nan nan nan nan
nan nan nan nan nan nan nan nan nan nan nan nan nan nan nan nan nan nan nan nan nan nan nan nan nan nan nan nan nan nan nan nan nan nan nan nan nan nan nan nan nan nan nan nan nan nan nan nan nan nan nan nan nan nan nan nan nan nan nan nan nan nan nan nan nan nan nan nan nan nan nan nan nan nan
nan nan nan nan nan nan nan nan nan nan nan nan nan nan nan nan nan nan nan nan nan nan nan nan nan nan nan nan nan nan nan nan nan nan nan nan nan nan nan nan nan nan nan nan nan nan nan nan nan nan nan nan nan nan nan nan nan nan nan nan nan nan nan nan nan nan nan nan nan nan nan nan nan nan
nan nan nan nan nan nan nan nan nan nan nan nan nan nan nan nan nan nan nan nan nan nan nan nan nan nan nan nan nan nan nan nan nan nan nan nan nan nan nan nan nan nan nan nan nan nan nan nan nan nan nan nan nan nan nan nan nan nan nan nan nan nan nan nan nan nan nan nan nan nan nan nan nan nan
Wind_Direction
230 241 249 257 262 271 286 290 304 306 301 311 319 317 316 317 312 319 323 346 341 345 340 346 13 4 28 43 49 56 58 74 99 45 10 353 352 117 128 136 167 191 205 287 287 273 219 166 160 130 132 333 7 26 27 26 23 18 12 12 11 9 6 8 11 18 nan nan nan nan 32 29 37 39
227 230 236 251 251 271 286 299 294 297 304 309 318 324 319 314 319 325 327 352 345 339 319 333 348 346 27 8 39 16 41 77 100 22 357 347 349 61 312 188 197 240 243 257 275 288 238 145 138 130 129 132 2 23 26 27 25 21 15 14 11 12 9 8 11 15 21 nan nan nan 35 33 34 38
228 222 216 233 247 251 270 278 287 294 299 313 316 321 310 319 319 322 321 314 326 314 312 328 339 331 342 347 2 5 358 356 298 360 355 353 29 351 349 58 75 250 222 220 225 279 314 95 113 130 133 128 86 16 22 25 25 21 17 14 11 11 11 9 11 14 17 nan nan nan nan 35 37 37
230 225 217 214 225 239 258 262 276 293 299 305 316 311 311 311 313 310 314 319 347 319 326 330 340 323 330 343 331 331 329 326 295 352 348 6 10 348 7 34 78 16 186 170 133 100 118 107 143 154 159 155 130 32 21 22 21 18 17 16 9 9 11 11 11 14 16 nan nan nan nan 36 39 41
242 236 231 223 231 248 251 254 262 279 290 294 302 303 306 310 309 309 308 312 320 308 320 324 324 322 319 325 315 310 321 324 332 334 347 358 354 356 10 19 42 82 121 98 84 86 110 120 140 152 149 152 128 54 19 24 23 16 14 13 8 6 8 11 11 12 nan nan nan nan nan 27 27 37
251 257 252 244 238 262 266 257 256 259 261 270 279 281 295 311 314 318 311 319 313 325 310 310 314 320 309 311 315 307 312 325 331 321 351 359 352 354 4 359 5 62 93 69 64 73 86 95 117 135 131 129 95 53 14 17 21 17 11 8 6 6 6 9 11 11 nan nan nan nan nan nan nan nan
255 248 255 250 246 251 254 259 261 259 256 259 264 272 287 302 308 306 311 305 316 321 321 318 312 311 306 311 318 303 319 331 338 341 342 353 359 353 351 348 354 21 87 322 10 52 59 67 93 122 124 199 257 259 260 328 11 17 10 5 3 5 7 8 9 10 nan nan nan nan nan nan nan nan
245 246 243 250 263 272 272 272 272 271 271 270 274 280 282 284 278 287 295 307 310 307 304 302 305 308 296 312 314 315 315 315 325 330 346 343 336 348 347 338 343 357 355 290 311 357 14 347 268 249 253 259 266 268 266 259 319 360 6 3 360 3 7 9 9 8 nan nan nan nan nan nan nan nan
267 265 265 261 264 268 266 264 267 269 266 274 275 275 274 276 273 276 287 300 305 307 314 301 297 296 303 316 312 302 288 305 317 318 318 323 329 344 345 327 329 346 307 284 261 264 265 261 261 256 254 252 258 264 271 278 281 321 351 358 360 0 5 9 10 9 7 nan nan nan nan nan nan nan
270 271 271 269 267 267 268 271 273 272 278 274 274 272 269 268 267 274 284 295 303 306 310 305 284 281 294 287 298 305 293 301 305 299 302 304 312 320 308 303 315 326 317 313 308 294 279 263 261 255 256 249 253 250 245 242 261 281 329 348 353 0 4 7 9 9 7 5 nan nan nan nan nan nan
273 275 273 272 271 272 273 273 277 276 273 276 276 278 279 278 281 283 292 296 297 293 291 290 302 295 291 291 285 291 288 307 312 302 290 287 302 306 304 300 305 313 300 296 286 292 295 281 282 268 258 251 251 254 252 244 240 254 290 337 347 352 360 6 8 8 7 5 3 4 nan nan nan nan
273 273 274 272 272 274 274 278 277 278 276 274 274 277 280 281 286 293 291 292 291 293 296 290 282 280 283 267 291 293 282 278 290 290 298 294 288 286 302 311 308 308 302 292 293 289 277 273 267 263 266 254 249 254 257 247 238 230 249 312 334 340 349 360 7 9 7 5 4 3 4 nan nan nan
265 266 270 271 272 273 283 295 288 289 289 280 277 271 279 282 289 292 294 299 297 293 286 281 286 279 268 275 270 262 278 278 287 291 288 299 297 301 299 294 307 305 300 301 299 296 294 287 284 288 285 276 263 266 258 256 242 238 244 273 307 328 337 350 358 3 6 7 6 4 4 4 5 nan
268 270 271 273 284 286 280 278 278 270 282 289 285 281 283 290 294 295 296 298 298 292 288 290 287 276 273 276 278 287 295 294 289 281 280 278 290 293 293 310 306 302 291 291 288 298 302 295 294 293 288 289 285 290 281 278 273 262 259 264 275 297 326 337 344 353 359 4 7 7 5 4 4 4
281 278 278 277 277 275 269 266 265 267 268 269 270 271 282 291 291 289 290 292 294 291 292 289 288 291 286 280 290 295 293 292 288 290 288 292 293 297 298 299 290 299 282 289 295 292 297 296 291 297 293 291 294 290 285 266 260 259 259 259 263 270 282 310 330 338 346 354 1 4 6 5 3 2
287 286 282 279 278 278 278 278 272 268 267 267 268 272 281 287 294 291 287 285 284 286 288 286 289 288 288 288 283 289 286 281 282 286 288 nan nan 294 297 305 306 305 287 287 293 290 293 291 288 290 291 293 297 293 281 266 264 264 262 259 257 260 266 277 292 316 334 343 352 356 358 2 3 3
292 289 286 283 278 275 271 273 272 270 267 264 265 266 270 274 279 285 284 282 282 284 283 286 283 289 287 286 288 291 288 286 287 nan nan nan nan nan 297 299 300 286 285 290 290 289 288 286 282 284 286 288 292 289 278 269 267 266 265 263 259 260 266 269 271 280 298 330 343 348 351 355 360 1
292 292 292 290 285 278 273 273 273 272 272 270 268 267 269 270 267 267 271 277 283 283 281 281 282 281 287 289 290 288 288 288 nan nan nan nan nan nan 292 293 294 289 281 283 294 nan nan 284 280 279 280 281 284 283 280 267 263 258 260 260 258 257 258 262 264 266 271 281 310 334 342 348 352 353
288 288 289 289 288 282 278 274 273 272 272 272 271 271 269 268 268 267 268 270 275 276 276 277 279 278 283 291 292 288 289 nan 298 296 299 nan nan 287 283 284 287 286 278 279 287 nan nan nan nan nan 284 280 281 281 276 264 258 254 254 254 nan nan nan nan nan 255 253 254 263 285 317 332 336 336
283 283 284 284 283 282 280 277 272 272 272 271 272 271 269 268 266 265 268 268 266 269 273 273 274 275 276 281 285 286 287 287 289 290 288 288 286 284 279 277 275 277 279 278 nan nan nan nan nan nan 289 285 281 279 276 268 258 nan nan nan nan nan nan nan nan nan nan 254 255 261 272 287 302 307
281 281 281 279 279 280 279 275 271 268 272 273 271 271 270 268 268 265 262 263 265 265 267 270 269 266 267 269 272 280 290 291 289 285 281 279 283 279 277 277 275 277 281 nan nan nan nan nan nan nan nan 287 289 277 nan 278 268 nan nan nan nan nan nan nan nan nan nan 252 255 258 265 275 285 297
278 280 286 280 278 278 275 270 269 266 272 274 273 271 271 270 270 267 261 262 264 264 266 270 262 265 264 261 260 266 272 286 286 283 281 283 284 279 nan nan nan nan nan nan nan nan nan nan nan nan nan nan 287 nan nan nan nan nan nan nan nan nan nan nan nan nan nan 253 254 257 264 273 283 292
274 273 278 280 276 274 272 271 269 268 273 278 277 276 273 271 271 271 266 263 261 259 260 263 260 262 256 260 262 265 262 273 279 280 282 283 nan nan nan nan nan nan nan nan nan nan nan nan nan nan nan nan 294 nan nan nan nan nan nan nan nan nan nan nan nan nan nan nan 257 261 264 267 277 285
270 267 264 265 267 269 268 267 267 268 269 277 280 279 276 271 269 270 268 267 267 266 266 265 264 263 261 259 263 265 267 268 272 275 nan nan nan nan nan nan nan nan nan nan nan nan nan nan nan nan nan nan nan nan nan nan nan nan nan nan nan nan nan nan nan nan nan nan nan nan 263 265 272 281
281 273 267 264 263 263 264 266 267 269 271 272 277 280 278 272 265 265 263 263 261 266 267 265 263 nan nan 263 266 268 267 nan 267 269 nan nan nan nan nan nan nan nan nan nan nan nan nan nan nan nan nan nan nan nan nan nan nan nan nan nan nan nan nan nan nan nan nan nan nan nan nan nan nan nan
276 274 271 269 263 256 258 260 261 262 266 274 275 278 281 274 267 259 259 262 263 263 264 263 263 262 262 265 266 nan nan nan 263 nan nan nan nan nan nan nan nan nan nan nan nan nan nan nan nan nan nan nan nan nan nan nan nan nan nan nan nan nan nan nan nan nan nan nan nan nan nan nan nan nan
265 267 269 268 259 253 253 255 261 267 272 273 273 273 275 275 266 257 256 259 261 262 263 263 nan 264 266 268 nan 264 nan nan nan nan nan nan nan nan nan nan nan nan nan nan nan nan nan nan nan nan nan nan nan nan nan nan nan nan nan nan nan nan nan nan nan nan nan nan nan nan nan nan nan nan
278 272 267 266 256 252 249 257 265 270 273 271 271 271 270 270 267 259 255 256 257 259 262 264 267 266 nan nan nan nan nan nan nan nan nan nan nan nan nan nan nan nan nan nan nan nan nan nan nan nan nan nan nan nan nan nan nan nan nan nan nan nan nan nan nan nan nan nan nan nan nan nan nan nan
nan 250 253 265 268 263 259 260 265 267 269 273 275 274 273 273 268 263 259 260 261 263 266 267 266 263 259 258 256 nan nan nan nan nan nan nan nan nan nan nan nan nan nan nan nan nan nan nan nan nan nan nan nan nan nan nan nan nan nan nan nan nan nan nan nan nan nan nan nan nan nan nan nan nan
nan nan nan 259 268 270 272 269 269 269 267 268 271 274 272 267 267 263 259 259 263 263 263 262 259 nan 251 251 nan nan nan nan nan nan nan nan nan nan nan nan nan nan nan nan nan nan nan nan nan nan nan nan nan nan nan nan nan nan nan nan nan nan nan nan nan nan nan nan nan nan nan nan nan nan
nan nan nan nan nan 273 267 268 272 270 265 262 262 262 263 264 265 nan nan nan nan nan nan nan nan nan nan nan nan nan nan nan nan nan nan nan nan nan nan nan nan nan nan nan nan nan nan nan nan nan nan nan nan nan nan nan nan nan nan nan nan nan nan nan nan nan nan nan nan nan nan nan nan nan
nan nan nan nan nan nan nan nan nan nan nan 260 258 nan nan nan nan nan nan nan nan nan nan 248 nan nan nan nan nan nan nan nan nan nan nan nan nan nan nan nan nan nan nan nan nan nan nan nan nan nan nan nan nan nan nan nan nan nan nan nan nan nan nan nan nan nan nan nan nan nan nan nan nan nan
nan nan nan nan nan nan nan nan nan nan nan nan nan nan nan nan nan nan nan nan nan nan nan nan nan nan nan nan nan nan nan nan nan nan nan nan nan nan nan nan nan nan nan nan nan nan nan nan nan nan nan nan nan nan nan nan nan nan nan nan nan nan nan nan nan nan nan nan nan nan nan nan nan nan
nan nan nan nan nan nan nan nan nan nan nan nan nan nan nan nan nan nan nan nan nan nan nan nan nan nan nan nan nan nan nan nan nan nan nan nan nan nan nan nan nan nan nan nan nan nan nan nan nan nan nan nan nan nan nan nan nan nan nan nan nan nan nan nan nan nan nan nan nan nan nan nan nan nan
nan nan nan nan nan nan nan nan nan nan nan nan nan nan nan nan nan nan nan nan nan nan nan nan nan nan nan nan nan nan nan nan nan nan nan nan nan nan nan nan nan nan nan nan nan nan nan nan nan nan nan nan nan nan nan nan nan nan nan nan nan nan nan nan nan nan nan nan nan nan nan nan nan nan
nan nan nan nan nan nan nan nan nan nan nan nan nan nan nan nan nan nan nan nan nan nan nan nan nan nan nan nan nan nan nan nan nan nan nan nan nan nan nan nan nan nan nan nan nan nan nan nan nan nan nan nan nan nan nan nan nan nan nan nan nan nan nan nan nan nan nan nan nan nan nan nan nan nan
nan nan nan nan nan nan nan nan nan nan nan nan nan nan nan nan nan nan nan nan nan nan nan nan nan nan nan nan nan nan nan nan nan nan nan nan nan nan nan nan nan nan nan nan nan nan nan nan nan nan nan nan nan nan nan nan nan nan nan nan nan nan nan nan nan nan nan nan nan nan nan nan nan nan
nan nan nan nan nan nan nan nan nan nan nan nan nan nan nan nan nan nan nan nan nan nan nan nan nan nan nan nan nan nan nan nan nan nan nan nan nan nan nan nan nan nan nan nan nan nan nan nan nan nan nan nan nan nan nan nan nan nan nan nan nan nan nan nan nan nan nan nan nan nan nan nan nan nan
nan nan nan nan nan nan nan nan nan nan nan nan nan nan nan nan nan nan nan nan nan nan nan nan nan nan nan nan nan nan nan nan nan nan nan nan nan nan nan nan nan nan nan nan nan nan nan nan nan nan nan nan nan nan nan nan nan nan nan nan nan nan nan nan nan nan nan nan nan nan nan nan nan nan
nan nan nan nan nan nan nan nan nan nan nan nan nan nan nan nan nan nan nan nan nan nan nan nan nan nan nan nan nan nan nan nan nan nan nan nan nan nan nan nan nan nan nan nan nan nan nan nan nan nan nan nan nan nan nan nan nan nan nan nan nan nan nan nan nan nan nan nan nan nan nan nan nan nan
nan nan nan nan nan nan nan nan nan nan nan nan nan nan nan nan nan nan nan nan nan nan nan nan nan nan nan nan nan nan nan nan nan nan nan nan nan nan nan nan nan nan nan nan nan nan nan nan nan nan nan nan nan nan nan nan nan nan nan nan nan nan nan nan nan nan nan nan nan nan nan nan nan nan
nan nan nan nan nan nan nan nan nan nan nan nan nan nan nan nan nan nan nan nan nan nan nan nan nan nan nan nan nan nan nan nan nan nan nan nan nan nan nan nan nan nan nan nan nan nan nan nan nan nan nan nan nan nan nan nan nan nan nan nan nan nan nan nan nan nan nan nan nan nan nan nan nan nan
nan nan nan nan nan nan nan nan nan nan nan nan nan nan nan nan nan nan nan nan nan nan nan nan nan nan nan nan nan nan nan nan nan nan nan nan nan nan nan nan nan nan nan nan nan nan nan nan nan nan nan nan nan nan nan nan nan nan nan nan nan nan nan nan nan nan nan nan nan nan nan nan nan nan
nan nan nan nan nan nan nan nan nan nan nan nan nan nan nan nan nan nan nan nan nan nan nan nan nan nan nan nan nan nan nan nan nan nan nan nan nan nan nan nan nan nan nan nan nan nan nan nan nan nan nan nan nan nan nan nan nan nan nan nan nan nan nan nan nan nan nan nan nan nan nan nan nan nan
nan nan nan nan nan nan nan nan nan nan nan nan nan nan nan nan nan nan nan nan nan nan nan nan nan nan nan nan nan nan nan nan nan nan nan nan nan nan nan nan nan nan nan nan nan nan nan nan nan nan nan nan nan nan nan nan nan nan nan nan nan nan nan nan nan nan nan nan nan nan nan nan nan nan